sat.trackr.live / text

‹ back to catalog

ONEWEB-0053

NORAD 45157 · 2020-008AC

PAYLOAD ACTIVE UNKNOWN

§ Identity

Operator
Country
UK
Launch date
2020-02-06
Launch site
TYMSC
Launch vehicle
Mass (kg)
RCS (m²)

Purposes: comms

External: N2YO · Heavens-Above · Gunter

§ Orbital elements

Epoch: 2026-05-25T03:22:28.381728Z

Period
109.89 min
Inclination
87.8855°
Eccentricity
0.0002343
Mean motion
13.10377312 rev/d
Perigee alt
1,219.9 km
Apogee alt
1,223.5 km
Semi-major
7,599.8 km
B*
8.0290e-5
RAAN
40.8727°
Arg perigee
81.0178°
Mean anomaly
279.1214°
Rev number
30,489

§ Raw data

ONEWEB-00531 45157U 20008AC  26145.14060627  .00000041  00000+0  80290-4 0  99932 45157  87.8855  40.8727 0002343  81.0178 279.1214 13.10377312304898

JSON: /api/v1/satellites/45157 · /tle

For live sub-satellite position, see the globe view (requires WebGL).

§ Visibility from observer

Set your observer location to see the next 7 days of passes ≥ 10°. The values pass through the URL so the page stays shareable.

No JS? Fill the form by hand. The geolocation button needs JavaScript.